Location: Sungai Jaoh
(2.9167°N, 113.9167°E)
Time: 06:46:03
(UTC+00:00)

Cosmos 1606 - Pass Details

Date: 30 November 2020
Orbit: 503 x 527 km, 82.5° (Epoch: 25 January)

Event Time Altitude Azimuth Distance (km) Brightness Sun altitude
Exits shadow 20:51:27 25° 6° (N) 1,040 4.0 -20.1°
Maximum altitude 20:53:30 73° 86° (E) 529 2.8 -19.6°
Drops below altitude 10° 20:57:14 10° 171° (S) 1,709 5.7 -18.7°
Sets 20:59:21 0° 173° (S) 2,594 6.7 -18.2°
